This demonstration page uses our WeatherBlox Daily Observations layout. Learn more.

40.92945, -100.16068

Hourly Observations for December 24, 2017

Temp ( °F °C ) Dew Point ( °F °C ) Humidity (%) Winds ( mph kmh ) Pressure ( in mb ) Visibility ( mi km ) Precip ( " mm )
12:15 am 00:15 Cloudy with Light Snow 17 -8.5 13 -10.3 87 87 NNW 9 15 30.42 1030 2.5 4.02336 0 0
12:35 am 00:35 Cloudy with Light Snow 17 -8.6 13 -10.7 85 85 NNW 8 13 30.48 1032 7 11.265408 0 0
12:55 am 00:55 Cloudy with Light Snow 17 -8.6 13 -10.7 85 85 NW 10 17 30.48 1032 4 6.437376 0.01 0.254
1:15 am 01:15 Cloudy with Light Snow 16 -8.7 12 -11 84 84 NNW 10 17 30.48 1032 5 8.04672 0 0
1:35 am 01:35 Cloudy with Light Snow 16 -8.8 12 -11 84 84 NW 13 20 30.48 1032 5 8.04672 0 0
1:55 am 01:55 Cloudy with Light Snow 16 -9 12 -11.2 84 84 NW 10 17 30.5 1033 7 11.265408 0 0
2:15 am 02:15 Cloudy with Light Snow 16 -9.1 12 -11.2 85 85 NW 10 17 30.48 1032 4 6.437376 0 0
2:35 am 02:35 Cloudy 15 -9.3 11 -11.5 84 84 NW 12 19 30.5 1033 10 16.09344 0 0
2:55 am 02:55 Cloudy with Light Snow 15 -9.5 11 -11.7 84 84 NW 12 19 30.5 1033 10 16.09344 0 0
3:15 am 03:15 Cloudy with Light Snow 14 -9.8 10 -12.3 82 82 NW 10 17 30.5 1033 7 11.265408 0 0
3:35 am 03:35 Cloudy 14 -10 9 -12.7 81 81 NW 10 17 30.5 1033 10 16.09344 0 0
3:55 am 03:55 Mostly Cloudy 11 -11.4 7 -14 81 81 WNW 10 17 30.5 1033 10 16.09344 0 0
4:15 am 04:15 Mostly Cloudy 10 -12.4 6 -14.6 84 84 WNW 10 17 30.5 1033 10 16.09344 0 0
4:35 am 04:35 Partly Cloudy 8 -13.5 4 -15.3 86 86 WNW 12 19 30.5 1033 10 16.09344 0 0
4:55 am 04:55 Clear 6 -14.3 2 -16.4 84 84 WNW 10 17 30.56 1035 10 16.09344 0 0
5:15 am 05:15 Clear 3 -16.1 -1 -18.2 84 84 WNW 12 19 30.56 1035 10 16.09344 0 0
5:35 am 05:35 Clear 3 -16 0 -18 85 85 WNW 12 19 30.56 1035 10 16.09344 0 0
5:55 am 05:55 Clear 5 -15 1 -17 85 85 WNW 15 24 30.56 1035 7 11.265408 0 0
6:15 am 06:15 Clear 6 -14.3 2 -16.6 83 83 WNW 12 19 30.56 1035 10 16.09344 0 0
6:35 am 06:35 Clear 3 -16 -1 -18.4 82 82 WNW 10 17 30.56 1035 10 16.09344 0 0
6:55 am 06:55 Clear 1 -17 -3 -19.7 80 80 WNW 8 13 30.56 1035 10 16.09344 0 0
7:15 am 07:15 Clear -2 -19.1 -7 -21.6 81 81 NW 6 9 30.62 1037 10 16.09344 0 0
7:35 am 07:35 Clear -1 -18.6 -6 -20.9 82 82 WNW 7 11 30.59 1036 10 16.09344 0 0
7:55 am 07:55 Clear -5 -20.3 -9 -22.8 81 81 WNW 10 17 30.62 1037 10 16.09344 0 0
8:15 am 08:15 Sunny -3 -19.3 -7 -21.7 81 81 WNW 7 11 30.62 1037 10 16.09344 0 0
8:35 am 08:35 Sunny -2 -18.9 -6 -21.3 81 81 WNW 12 19 30.62 1037 10 16.09344 0 0
8:55 am 08:55 Sunny 2 -16.8 -3 -19.4 80 80 WNW 15 24 30.59 1036 10 16.09344 0 0
9:15 am 09:15 Sunny 3 -16.1 -2 -18.8 80 80 WNW 15 24 30.56 1035 10 16.09344 0 0
9:35 am 09:35 Sunny 4 -15.7 -2 -18.7 78 78 NW 13 20 30.59 1036 10 16.09344 0 0
9:55 am 09:55 Sunny 6 -14.6 -1 -18.6 72 72 NW 14 22 30.59 1036 10 16.09344 0 0
10:15 am 10:15 Sunny 7 -14 -1 -18.5 69 69 NW 15 24 30.59 1036 10 16.09344 0 0
10:35 am 10:35 Hazy 7 -13.9 -1 -18.4 69 69 WNW 15 24 30.59 1036 5 8.04672 0 0
10:55 am 10:55 Sunny 7 -13.8 -1 -18.3 69 69 NW 13 20 30.59 1036 10 16.09344 0 0
11:15 am 11:15 Sunny 8 -13.5 0 -17.7 71 71 NW 9 15 30.59 1036 10 16.09344 0 0
11:35 am 11:35 Sunny 9 -12.7 2 -16.8 72 72 WNW 7 11 30.56 1035 10 16.09344 0 0
11:55 am 11:55 Sunny 13 -10.5 5 -15.1 69 69 WNW 18 30 30.53 1034 10 16.09344 0 0
12:15 pm 12:15 Sunny 16 -9.1 6 -14.7 64 64 WNW 17 28 30.5 1033 10 16.09344 0 0
12:35 pm 12:35 Hazy 17 -8.6 7 -14 65 65 WNW 16 26 30.5 1033 3 4.828032 0 0
12:55 pm 12:55 Sunny 17 -8.2 7 -14.1 63 63 WNW 17 28 30.48 1032 10 16.09344 0 0
1:15 pm 13:15 Sunny 17 -8.2 7 -14 63 63 NW 13 20 30.48 1032 10 16.09344 0 0
1:35 pm 13:35 Sunny 17 -8.5 7 -14 65 65 NW 13 20 30.45 1031 10 16.09344 0 0
1:55 pm 13:55 Sunny 17 -8.1 6 -14.3 61 61 NW 15 24 30.45 1031 10 16.09344 0 0
2:15 pm 14:15 Sunny 17 -8.2 6 -14.6 60 60 WNW 14 22 30.45 1031 10 16.09344 0 0
2:35 pm 14:35 Sunny 17 -8.1 6 -14.5 60 60 WNW 15 24 30.45 1031 10 16.09344 0 0
2:55 pm 14:55 Sunny 18 -7.7 7 -14.1 60 60 NW 12 19 30.42 1030 10 16.09344 0 0
3:15 pm 15:15 Sunny 19 -7.1 7 -13.7 60 60 NW 14 22 30.45 1031 10 16.09344 0 0
3:35 pm 15:35 Sunny 19 -7.1 7 -14 58 58 NW 15 24 30.42 1030 10 16.09344 0 0
3:55 pm 15:55 Sunny 18 -7.6 7 -14 61 61 WNW 12 19 30.45 1031 10 16.09344 0 0
4:15 pm 16:15 Sunny 18 -7.9 6 -14.5 59 59 WNW 13 20 30.45 1031 10 16.09344 0 0
4:35 pm 16:35 Sunny 18 -7.7 6 -14.5 59 59 WNW 14 22 30.45 1031 10 16.09344 0 0
4:55 pm 16:55 Sunny 19 -7 6 -14.4 56 56 WNW 10 17 30.45 1031 10 16.09344 0 0
5:15 pm 17:15 Sunny 17 -8.4 4 -15.4 57 57 WNW 12 19 30.45 1031 10 16.09344 0 0
5:35 pm 17:35 Clear 13 -10.7 3 -16.2 64 64 WNW 9 15 30.48 1032 10 16.09344 0 0
5:55 pm 17:55 Clear 10 -12.1 2 -16.8 68 68 WNW 6 9 30.5 1033 10 16.09344 0 0
6:15 pm 18:15 Clear 10 -12.1 2 -16.7 69 69 W 6 9 30.5 1033 10 16.09344 0 0
6:35 pm 18:35 Clear 9 -12.9 1 -17.3 70 70 W 6 9 30.5 1033 10 16.09344 0 0
6:55 pm 18:55 Clear 4 -15.5 -3 -19.2 74 74 WSW 7 11 30.53 1034 10 16.09344 0 0
7:15 pm 19:15 Clear 6 -14.7 1 -17.5 79 79 W 10 17 30.53 1034 10 16.09344 0 0
7:35 pm 19:35 Clear 0 -17.9 -5 -20.7 79 79 W 9 15 30.56 1035 10 16.09344 0 0
7:55 pm 19:55 Clear -1 -18.5 -7 -21.4 78 78 W 7 11 30.56 1035 10 16.09344 0 0
8:15 pm 20:15 Clear 3 -16.2 -2 -19.1 79 79 Calm 30.53 1034 10 16.09344 0 0
8:35 pm 20:35 Clear 4 -15.8 -2 -19.1 76 76 WNW 5 7 30.53 1034 10 16.09344 0 0
8:55 pm 20:55 Clear -2 -18.7 -6 -21.1 82 82 NNW 5 7 30.59 1036 10 16.09344 0 0
9:15 pm 21:15 Clear -1 -18.5 -6 -21 81 81 WNW 3 6 30.59 1036 10 16.09344 0 0
9:35 pm 21:35 Clear -2 -18.7 -6 -21.1 82 82 WNW 5 7 30.59 1036 10 16.09344 0 0
9:55 pm 21:55 Clear -3 -19.3 -7 -21.8 81 81 NW 3 6 30.62 1037 10 16.09344 0 0
10:15 pm 22:15 Clear -1 -18.6 -7 -21.4 79 79 NW 5 7 30.59 1036 10 16.09344 0 0
10:35 pm 22:35 Clear -2 -19.1 -8 -22 78 78 NW 7 11 30.62 1037 10 16.09344 0 0
10:55 pm 22:55 Clear -3 -19.2 -7 -21.9 79 79 NW 6 9 30.62 1037 10 16.09344 0 0
11:15 pm 23:15 Clear -3 -19.6 -8 -22.1 81 81 NNW 5 7 30.62 1037 10 16.09344 0 0
11:35 pm 23:35 Clear -2 -18.9 -7 -21.6 79 79 NW 6 9 30.62 1037 10 16.09344 0 0
11:55 pm 23:55 Clear -2 -19.1 -7 -21.9 79 79 NNW 3 6 30.62 1037 10 16.09344 0 0

Powered by AerisWeather